EW4195 Weather Reports


time (UTC)temp
C
wind
direction
speed
KPH
gust
KPH
rain 1hr
cm
rain 24hr
cm
rain mn
cm
humidity
%
barometer
mb
20260508193253 13 117 1.6 8.0 0.00 0.00 0.00 1 1017.0
20260508191158 13 117 3.2 9.7 0.00 0.00 0.00 4 1016.8
20260508190222 13 103 3.2 11.3 0.00 0.00 0.00 9 1016.7
20260508185244 13 94 3.2 11.3 0.00 0.00 0.00 11 1016.6
20260508184248 14 78 4.8 12.9 0.00 0.00 0.00 16 1016.5
20260508183306 14 82 3.2 14.5 0.00 0.00 0.00 25 1016.4
20260508182318 15 98 4.8 16.1 0.00 0.00 0.00 31 1016.5
20260508181338 15 92 6.4 16.1 0.00 0.00 0.00 35 1016.4
20260508180334 15 82 4.8 14.5 0.00 0.00 0.00 35 1016.5
20260508175337 15 77 4.8 14.5 0.00 0.00 0.00 36 1016.4
20260508174321 16 80 4.8 16.1 0.00 0.00 0.00 36 1016.4
20260508173308 16 74 4.8 16.1 0.00 0.00 0.00 37 1016.3
20260508171131 16 60 6.4 16.1 0.00 0.00 0.00 44 1016.2
20260508165012 16 82 9.7 17.7 0.00 0.00 0.00 43 1016.0
20260508164006 17 115 8.0 19.3 0.00 0.00 0.00 44 1016.0
20260508163017 17 84 6.4 19.3 0.00 0.00 0.00 44 1015.9
20260508161952 17 74 8.0 19.3 0.00 0.00 0.00 45 1015.8
20260508160930 17 56 8.0 19.3 0.00 0.00 0.00 45 1015.9
20260508155943 17 57 8.0 24.1 0.00 0.00 0.00 44 1015.8
20260508154925 17 44 11.3 24.1 0.00 0.00 0.00 44 1015.9
20260508152822 17 40 9.7 22.5 0.00 0.00 0.00 42 1015.9
20260508150709 17 69 8.0 20.9 0.00 0.00 0.00 43 1016.0
20260508145726 17 64 9.7 20.9 0.00 0.00 0.00 42 1016.1
20260508144657 17 88 9.7 20.9 0.00 0.00 0.00 44 1016.1
20260508143644 17 84 11.3 22.5 0.00 0.00 0.00 39 1016.2
20260508142709 17 80 11.3 22.5 0.00 0.00 0.00 43 1016.2
20260508141716 17 99 11.3 22.5 0.00 0.00 0.00 42 1016.2
20260508140738 17 49 11.3 22.5 0.00 0.00 0.00 44 1016.2
20260508135728 17 84 11.3 22.5 0.00 0.00 0.00 45 1016.1
20260508134707 17 86 11.3 22.5 0.00 0.00 0.00 43 1016.2
20260508133704 17 57 11.3 24.1 0.00 0.00 0.00 43 1016.3
20260508132630 17 56 9.7 20.9 0.00 0.00 0.00 43 1016.2
20260508131624 17 34 11.3 22.5 0.00 0.00 0.00 43 1016.4
20260508130613 17 94 12.9 24.1 0.00 0.00 0.00 44 1016.4
20260508124436 17 44 11.3 24.1 0.00 0.00 0.00 42 1016.3
20260508123446 17 67 12.9 24.1 0.00 0.00 0.00 36 1016.3
20260508122456 17 36 11.3 25.7 0.00 0.00 0.00 36 1016.2
20260508121502 17 56 11.3 25.7 0.00 0.00 0.00 37 1016.3
20260508120437 17 70 9.7 20.9 0.00 0.00 0.00 37 1016.3
20260508114306 17 69 9.7 19.3 0.00 0.00 0.00 34 1016.3
20260508113234 17 68 9.7 20.9 0.00 0.00 0.00 37 1016.4
20260508112228 17 47 9.7 20.9 0.00 0.00 0.00 41 1016.4
20260508111249 17 43 11.3 19.3 0.00 0.00 0.00 46 1016.3
20260508105123 17 63 8.0 17.7 0.00 0.00 0.00 31 1016.2
20260508104122 16 77 8.0 20.9 0.00 0.00 0.00 34 1016.3
20260508103057 16 40 6.4 20.9 0.00 0.00 0.00 28 1016.3
20260508102057 16 42 8.0 17.7 0.00 0.00 0.00 13 1016.3
20260508095907 16 55 6.4 16.1 0.00 0.00 0.00 28 1016.4
20260508093745 16 81 6.4 14.5 0.00 0.00 0.00 8 1016.3
20260508092803 16 46 6.4 14.5 0.00 0.00 0.00 1 1016.3
20260508091759 16 73 8.0 16.1 0.00 0.00 0.00 1 1016.3
20260508090818 16 65 8.0 16.1 0.00 0.00 0.00 1 1016.3
20260508085832 16 37 3.2 11.3 0.00 0.00 0.00 1 1016.4
20260508083721 16 55 6.4 12.9 0.00 0.00 0.00 1 1016.5
20260508082741 16 49 3.2 9.7 0.00 0.00 0.00 1 1016.4
20260508081735 16 49 1.6 11.3 0.00 0.00 0.00 1 1016.4
20260508080706 16 35 3.2 11.3 0.00 0.00 0.00 1 1016.3
20260508075715 16 63 3.2 8.0 0.00 0.00 0.00 1 1016.3
20260508073550 14 126 3.2 9.7 0.00 0.00 0.00 1 1016.3
20260508072609 14 96 3.2 11.3 0.00 0.00 0.00 1 1016.3
20260508070430 13 104 1.6 9.7 0.00 0.00 0.00 1 1016.3
20260508065431 13 146 0.0 4.8 0.00 0.00 0.00 1 1016.3
20260508064442 12 150 0.0 0.0 0.00 0.00 0.00 1 1016.1
20260508063445 12 150 0.0 0.0 0.00 0.00 0.00 1 1016.0
20260508062509 11 150 0.0 0.0 0.00 0.00 0.00 1 1016.0
20260508060248 11 150 0.0 0.0 0.00 0.00 0.00 1 1015.9
20260508055250 10 151 0.0 0.0 0.00 0.00 0.00 1 1015.9
20260508054243 10 150 0.0 0.0 0.00 0.00 0.00 1 1015.9
20260508053307 10 151 0.0 0.0 0.00 0.00 0.00 1 1015.8
20260508052319 8 150 0.0 0.0 0.00 0.00 0.00 1 1015.8
20260508051306 8 151 0.0 0.0 0.00 0.00 0.00 1 1015.8
20260508045127 8 151 0.0 0.0 0.00 0.00 0.00 1 1015.7
20260508044109 8 150 0.0 0.0 0.00 0.00 0.00 1 1015.7
20260508043132 8 150 0.0 0.0 0.00 0.00 0.00 1 1015.6
20260508042101 8 150 0.0 0.0 0.00 0.00 0.00 1 1015.6
20260508035927 8 150 0.0 0.0 0.00 0.00 0.00 1 1015.5
20260508034905 8 150 0.0 0.0 0.00 0.00 0.00 1 1015.5
20260508033929 8 150 0.0 0.0 0.00 0.00 0.00 1 1015.4
20260508032934 8 150 0.0 0.0 0.00 0.00 0.00 1 1015.4
20260508031954 8 150 0.0 0.0 0.00 0.00 0.00 1 1015.4
20260508031011 8 150 0.0 0.0 0.00 0.00 0.00 1 1015.4
20260508025950 8 150 0.0 0.0 0.00 0.00 0.00 1 1015.4
20260508023914 8 150 0.0 0.0 0.00 0.00 0.00 1 1015.4
20260508021838 8 150 0.0 0.0 0.00 0.00 0.00 1 1015.4
20260508020849 8 150 0.0 0.0 0.00 0.00 0.00 1 1015.4
20260508014750 8 150 0.0 0.0 0.00 0.00 0.00 1 1015.4
20260508013756 8 150 0.0 0.0 0.00 0.00 0.00 1 1015.4
20260508012758 8 150 0.0 0.0 0.00 0.00 0.00 1 1015.5
20260508011738 8 150 0.0 0.0 0.00 0.00 0.00 1 1015.4
20260508010732 8 150 0.0 0.0 0.00 0.00 0.00 1 1015.3
20260508005710 8 150 0.0 0.0 0.00 0.00 0.00 1 1015.3
20260508004656 8 150 0.0 0.0 0.00 0.00 0.00 1 1015.4
20260508003645 8 150 0.0 0.0 0.00 0.00 0.00 1 1015.4
20260508002645 9 150 0.0 0.0 0.00 0.00 0.00 1 1015.4
20260508001618 9 150 0.0 0.0 0.00 0.00 0.00 1 1015.5
20260508000613 10 150 0.0 0.0 0.00 0.00 0.00 1 1015.5
20260507235630 10 150 0.0 0.0 0.00 0.00 0.00 1 1015.6
20260507234612 10 150 0.0 0.0 0.00 0.00 0.00 1 1015.7
20260507233606 10 150 0.0 4.8 0.00 0.00 0.00 1 1015.8
20260507232621 10 151 1.6 11.3 0.00 0.00 0.00 1 1015.9
20260507230524 10 161 1.6 6.4 0.00 0.00 0.00 1 1016.0
20260507225541 10 162 3.2 8.0 0.00 0.00 0.00 1 1015.9
20260507223403 10 147 0.0 0.0 0.00 0.00 0.00 1 1016.0
20260507221252 10 147 1.6 4.8 0.00 0.00 0.00 1 1016.1
20260507220224 10 147 1.6 4.8 0.00 0.00 0.00 1 1016.1
20260507214107 11 147 1.6 4.8 0.00 0.00 0.00 1 1016.2
20260507210758 11 149 0.0 0.0 0.00 0.00 0.00 1 1016.0
20260507205806 11 150 1.6 4.8 0.00 0.00 0.00 1 1016.0
20260507203643 11 155 3.2 8.0 0.00 0.00 0.00 1 1015.8
20260507202612 11 155 3.2 9.7 0.00 0.00 0.00 1 1015.8
20260507201551 11 138 4.8 11.3 0.00 0.00 0.00 1 1015.7
20260507195521 11 137 3.2 9.7 0.00 0.00 0.00 1 1015.6
20260507194504 11 146 3.2 9.7 0.00 0.00 0.00 1 1015.6